Time,TemperatureF,DewpointF,PressureIn,WindDirection,WindDirectionDegrees,WindSpeedMPH,WindSpeedGustMPH,Humidity,HourlyPrecipIn,Conditions,Clouds,dailyrainin,SoftwareType,DateUTC
2013-01-16 00:01:00,9.9,7.0,30.67,WSW,246,23.0,-999.0,88,-99.99,,,0.00,weatherlink.com 1.10,2013-01-16 07:01:00,
2013-01-16 00:16:00,9.4,7.0,30.68,SW,236,21.0,-999.0,88,-99.99,,,0.00,weatherlink.com 1.10,2013-01-16 07:16:00,
2013-01-16 00:31:00,8.9,6.0,30.66,SSW,212,22.0,-999.0,88,-99.99,,,0.00,weatherlink.com 1.10,2013-01-16 07:31:00,
2013-01-16 00:46:00,9.1,6.0,30.67,WSW,254,23.0,-999.0,88,-99.99,,,0.00,weatherlink.com 1.10,2013-01-16 07:46:00,
2013-01-16 01:01:00,9.3,7.0,30.65,West,259,12.0,-999.0,88,-99.99,,,0.00,weatherlink.com 1.10,2013-01-16 08:01:00,
2013-01-16 01:16:00,9.5,7.0,30.64,WSW,251,22.0,-999.0,88,-99.99,,,0.00,weatherlink.com 1.10,2013-01-16 08:16:00,
2013-01-16 01:31:00,9.8,7.0,30.63,West,259,23.0,-999.0,88,-99.99,,,0.00,weatherlink.com 1.10,2013-01-16 08:31:00,
2013-01-16 01:46:00,10.3,8.0,30.62,WSW,244,15.0,-999.0,88,-99.99,,,0.00,weatherlink.com 1.10,2013-01-16 08:46:00,
2013-01-16 02:01:00,10.8,8.0,30.63,WNW,293,17.0,-999.0,88,-99.99,,,0.00,weatherlink.com 1.10,2013-01-16 09:01:00,
2013-01-16 02:16:00,11.6,9.0,30.64,West,275,12.0,-999.0,89,-99.99,,,0.00,weatherlink.com 1.10,2013-01-16 09:16:00,
2013-01-16 02:32:00,11.8,9.0,30.66,WSW,237,11.0,-999.0,89,-99.99,,,0.00,weatherlink.com 1.10,2013-01-16 09:32:00,
2013-01-16 02:47:00,12.0,9.0,30.66,West,259,14.0,-999.0,88,-99.99,,,0.00,weatherlink.com 1.10,2013-01-16 09:47:00,
2013-01-16 03:02:00,12.0,9.0,30.67,WSW,255,9.0,-999.0,89,-99.99,,,0.00,weatherlink.com 1.10,2013-01-16 10:02:00,
2013-01-16 03:17:00,11.4,9.0,30.65,SW,229,9.0,-999.0,88,-99.99,,,0.00,weatherlink.com 1.10,2013-01-16 10:17:00,
2013-01-16 03:32:00,11.0,8.0,30.66,WSW,243,16.0,-999.0,88,-99.99,,,0.00,weatherlink.com 1.10,2013-01-16 10:32:00,
2013-01-16 03:47:00,11.1,8.0,30.65,WSW,240,17.0,-999.0,88,-99.99,,,0.00,weatherlink.com 1.10,2013-01-16 10:47:00,
2013-01-16 04:02:00,11.2,9.0,30.64,West,274,14.0,-999.0,89,-99.99,,,0.00,weatherlink.com 1.10,2013-01-16 11:02:00,
2013-01-16 04:17:00,11.2,8.0,30.64,WSW,249,9.0,-999.0,88,-99.99,,,0.00,weatherlink.com 1.10,2013-01-16 11:17:00,
2013-01-16 04:32:00,11.1,9.0,30.62,SW,232,18.0,-999.0,89,-99.99,,,0.00,weatherlink.com 1.10,2013-01-16 11:32:00,
2013-01-16 04:47:00,10.5,8.0,30.61,SW,235,13.0,-999.0,88,-99.99,,,0.00,weatherlink.com 1.10,2013-01-16 11:47:00,
2013-01-16 05:02:00,10.8,8.0,30.61,SW,227,12.0,-999.0,89,-99.99,,,0.00,weatherlink.com 1.10,2013-01-16 12:02:00,
2013-01-16 05:17:00,11.7,9.0,30.60,SW,225,16.0,-999.0,89,-99.99,,,0.00,weatherlink.com 1.10,2013-01-16 12:17:00,
2013-01-16 05:33:00,11.6,9.0,30.59,SSW,194,14.0,-999.0,89,-99.99,,,0.00,weatherlink.com 1.10,2013-01-16 12:33:00,
2013-01-16 05:48:00,11.4,9.0,30.59,SSW,213,10.0,-999.0,89,-99.99,,,0.00,weatherlink.com 1.10,2013-01-16 12:48:00,
2013-01-16 06:03:00,11.6,9.0,30.58,WSW,238,14.0,-999.0,89,-99.99,,,0.00,weatherlink.com 1.10,2013-01-16 13:03:00,
2013-01-16 06:18:00,12.9,10.0,30.58,SSW,198,18.0,-999.0,89,-99.99,,,0.00,weatherlink.com 1.10,2013-01-16 13:18:00,
2013-01-16 06:33:00,12.3,10.0,30.57,SW,233,11.0,-999.0,89,-99.99,,,0.00,weatherlink.com 1.10,2013-01-16 13:33:00,
2013-01-16 06:48:00,12.3,10.0,30.56,West,259,14.0,-999.0,89,-99.99,,,0.00,weatherlink.com 1.10,2013-01-16 13:48:00,
2013-01-16 07:03:00,12.2,10.0,30.57,SW,227,13.0,-999.0,89,-99.99,,,0.00,weatherlink.com 1.10,2013-01-16 14:03:00,
2013-01-16 07:18:00,12.4,10.0,30.57,WSW,238,18.0,-999.0,89,-99.99,,,0.00,weatherlink.com 1.10,2013-01-16 14:18:00,
2013-01-16 07:33:00,12.4,10.0,30.58,SSW,204,15.0,-999.0,89,-99.99,,,0.00,weatherlink.com 1.10,2013-01-16 14:33:00,
2013-01-16 07:48:00,13.2,11.0,30.59,SW,225,12.0,-999.0,90,-99.99,,,0.00,weatherlink.com 1.10,2013-01-16 14:48:00,
2013-01-16 08:03:00,13.0,10.0,30.58,SW,215,13.0,-999.0,89,-99.99,,,0.00,weatherlink.com 1.10,2013-01-16 15:03:00,
2013-01-16 08:19:00,13.8,11.0,30.60,SSW,208,22.0,-999.0,90,-99.99,,,0.00,weatherlink.com 1.10,2013-01-16 15:19:00,
2013-01-16 08:34:00,13.8,11.0,30.60,SW,224,13.0,-999.0,90,-99.99,,,0.00,weatherlink.com 1.10,2013-01-16 15:34:00,
2013-01-16 08:49:00,13.9,11.0,30.61,South,190,17.0,-999.0,89,-99.99,,,0.00,weatherlink.com 1.10,2013-01-16 15:49:00,
2013-01-16 09:04:00,14.4,12.0,30.61,SSW,212,12.0,-999.0,90,-99.99,,,0.00,weatherlink.com 1.10,2013-01-16 16:04:00,
2013-01-16 09:19:00,14.3,12.0,30.61,SSW,212,15.0,-999.0,90,-99.99,,,0.00,weatherlink.com 1.10,2013-01-16 16:19:00,
2013-01-16 09:34:00,14.6,12.0,30.62,SSW,202,17.0,-999.0,90,-99.99,,,0.00,weatherlink.com 1.10,2013-01-16 16:34:00,
2013-01-16 09:49:00,14.8,12.0,30.63,SW,221,15.0,-999.0,90,-99.99,,,0.00,weatherlink.com 1.10,2013-01-16 16:49:00,
2013-01-16 10:04:00,15.1,13.0,30.62,SSW,211,16.0,-999.0,90,-99.99,,,0.00,weatherlink.com 1.10,2013-01-16 17:04:00,
2013-01-16 10:19:00,15.8,13.0,30.62,SW,216,16.0,-999.0,90,-99.99,,,0.00,weatherlink.com 1.10,2013-01-16 17:19:00,
2013-01-16 10:34:00,16.4,14.0,30.63,South,186,15.0,-999.0,89,-99.99,,,0.00,weatherlink.com 1.10,2013-01-16 17:34:00,
2013-01-16 10:49:00,17.6,14.0,30.62,SSW,203,19.0,-999.0,86,-99.99,,,0.00,weatherlink.com 1.10,2013-01-16 17:49:00,
2013-01-16 11:05:00,18.7,14.0,30.62,SSW,204,10.0,-999.0,81,-99.99,,,0.00,weatherlink.com 1.10,2013-01-16 18:05:00,
2013-01-16 11:20:00,20.3,14.0,30.63,WSW,247,11.0,-999.0,77,-99.99,,,0.00,weatherlink.com 1.10,2013-01-16 18:20:00,
2013-01-16 11:35:00,22.0,15.0,30.61,SW,217,15.0,-999.0,74,-99.99,,,0.00,weatherlink.com 1.10,2013-01-16 18:35:00,
2013-01-16 11:50:00,22.8,14.0,30.61,SW,223,10.0,-999.0,70,-99.99,,,0.00,weatherlink.com 1.10,2013-01-16 18:50:00,
2013-01-16 12:05:00,23.4,15.0,30.59,SW,236,10.0,-999.0,69,-99.99,,,0.00,weatherlink.com 1.10,2013-01-16 19:05:00,
2013-01-16 12:20:00,23.7,15.0,30.59,SW,225,16.0,-999.0,68,-99.99,,,0.00,weatherlink.com 1.10,2013-01-16 19:20:00,
2013-01-16 12:35:00,24.7,15.0,30.58,SW,236,12.0,-999.0,67,-99.99,,,0.00,weatherlink.com 1.10,2013-01-16 19:35:00,
2013-01-16 12:50:00,24.2,14.0,30.57,SW,215,15.0,-999.0,66,-99.99,,,0.00,weatherlink.com 1.10,2013-01-16 19:50:00,
2013-01-16 13:05:00,25.0,14.0,30.56,SSW,209,10.0,-999.0,64,-99.99,,,0.00,weatherlink.com 1.10,2013-01-16 20:05:00,
2013-01-16 13:20:00,25.8,15.0,30.56,SW,224,17.0,-999.0,63,-99.99,,,0.00,weatherlink.com 1.10,2013-01-16 20:20:00,
2013-01-16 13:36:00,27.1,15.0,30.56,SSW,211,11.0,-999.0,61,-99.99,,,0.00,weatherlink.com 1.10,2013-01-16 20:36:00,
2013-01-16 13:51:00,26.8,14.0,30.55,West,267,5.0,-999.0,60,-99.99,,,0.00,weatherlink.com 1.10,2013-01-16 20:51:00,
2013-01-16 14:06:00,25.8,14.0,30.56,SW,222,19.0,-999.0,62,-99.99,,,0.00,weatherlink.com 1.10,2013-01-16 21:06:00,
2013-01-16 14:21:00,25.4,14.0,30.55,SW,216,19.0,-999.0,63,-99.99,,,0.00,weatherlink.com 1.10,2013-01-16 21:21:00,
2013-01-16 14:36:00,25.1,15.0,30.55,SSW,213,18.0,-999.0,65,-99.99,,,0.00,weatherlink.com 1.10,2013-01-16 21:36:00,
2013-01-16 14:51:00,25.1,15.0,30.55,SW,234,6.0,-999.0,65,-99.99,,,0.00,weatherlink.com 1.10,2013-01-16 21:51:00,
2013-01-16 15:06:00,24.7,14.0,30.55,SW,229,15.0,-999.0,65,-99.99,,,0.00,weatherlink.com 1.10,2013-01-16 22:06:00,
2013-01-16 15:21:00,26.1,15.0,30.55,SW,223,12.0,-999.0,64,-99.99,,,0.00,weatherlink.com 1.10,2013-01-16 22:21:00,
2013-01-16 15:36:00,26.0,15.0,30.55,West,269,9.0,-999.0,63,-99.99,,,0.00,weatherlink.com 1.10,2013-01-16 22:36:00,
2013-01-16 15:51:00,25.6,14.0,30.55,SW,231,10.0,-999.0,63,-99.99,,,0.00,weatherlink.com 1.10,2013-01-16 22:51:00,
2013-01-16 16:06:00,24.9,14.0,30.54,SSW,203,12.0,-999.0,64,-99.99,,,0.00,weatherlink.com 1.10,2013-01-16 23:06:00,
2013-01-16 16:22:00,24.2,14.0,30.54,SW,222,13.0,-999.0,65,-99.99,,,0.00,weatherlink.com 1.10,2013-01-16 23:22:00,
2013-01-16 16:37:00,23.3,14.0,30.54,SW,233,12.0,-999.0,67,-99.99,,,0.00,weatherlink.com 1.10,2013-01-16 23:37:00,
2013-01-16 16:52:00,22.9,14.0,30.53,SW,224,23.0,-999.0,68,-99.99,,,0.00,weatherlink.com 1.10,2013-01-16 23:52:00,
2013-01-16 17:07:00,21.7,13.0,30.54,West,265,9.0,-999.0,70,-99.99,,,0.00,weatherlink.com 1.10,2013-01-17 00:07:00,
2013-01-16 17:22:00,20.7,13.0,30.54,WSW,241,13.0,-999.0,72,-99.99,,,0.00,weatherlink.com 1.10,2013-01-17 00:22:00,
2013-01-16 17:37:00,19.5,12.0,30.54,SW,225,14.0,-999.0,74,-99.99,,,0.00,weatherlink.com 1.10,2013-01-17 00:37:00,
2013-01-16 17:52:00,18.9,13.0,30.54,WSW,242,14.0,-999.0,76,-99.99,,,0.00,weatherlink.com 1.10,2013-01-17 00:52:00,
2013-01-16 18:07:00,18.5,12.0,30.53,WSW,254,13.0,-999.0,76,-99.99,,,0.00,weatherlink.com 1.10,2013-01-17 01:07:00,
2013-01-16 18:22:00,18.4,12.0,30.52,SW,230,21.0,-999.0,77,-99.99,,,0.00,weatherlink.com 1.10,2013-01-17 01:22:00,
2013-01-16 18:37:00,18.5,12.0,30.52,SW,236,19.0,-999.0,76,-99.99,,,0.00,weatherlink.com 1.10,2013-01-17 01:37:00,
2013-01-16 18:52:00,18.2,11.0,30.51,SW,234,17.0,-999.0,74,-99.99,,,0.00,weatherlink.com 1.10,2013-01-17 01:52:00,
2013-01-16 19:08:00,17.7,11.0,30.52,SW,227,22.0,-999.0,75,-99.99,,,0.00,weatherlink.com 1.10,2013-01-17 02:08:00,
2013-01-16 19:23:00,18.1,11.0,30.52,WSW,246,18.0,-999.0,75,-99.99,,,0.00,weatherlink.com 1.10,2013-01-17 02:23:00,
2013-01-16 19:38:00,17.7,11.0,30.53,SSW,200,22.0,-999.0,75,-99.99,,,0.00,weatherlink.com 1.10,2013-01-17 02:38:00,
2013-01-16 19:53:00,17.2,11.0,30.55,WSW,242,14.0,-999.0,76,-99.99,,,0.00,weatherlink.com 1.10,2013-01-17 02:53:00,
2013-01-16 20:08:00,17.6,10.0,30.54,SW,226,11.0,-999.0,73,-99.99,,,0.00,weatherlink.com 1.10,2013-01-17 03:08:00,
2013-01-16 20:23:00,17.7,10.0,30.54,SW,226,16.0,-999.0,73,-99.99,,,0.00,weatherlink.com 1.10,2013-01-17 03:23:00,
2013-01-16 20:38:00,17.4,10.0,30.55,SSW,207,11.0,-999.0,73,-99.99,,,0.00,weatherlink.com 1.10,2013-01-17 03:38:00,
2013-01-16 20:53:00,17.7,10.0,30.55,SSW,196,13.0,-999.0,71,-99.99,,,0.00,weatherlink.com 1.10,2013-01-17 03:53:00,
2013-01-16 21:08:00,17.7,10.0,30.54,SW,219,17.0,-999.0,71,-99.99,,,0.00,weatherlink.com 1.10,2013-01-17 04:08:00,
2013-01-16 21:23:00,17.3,9.0,30.53,SW,216,19.0,-999.0,70,-99.99,,,0.00,weatherlink.com 1.10,2013-01-17 04:23:00,
2013-01-16 21:38:00,16.6,9.0,30.53,WSW,238,16.0,-999.0,72,-99.99,,,0.00,weatherlink.com 1.10,2013-01-17 04:38:00,
2013-01-16 21:53:00,17.2,10.0,30.54,SW,231,17.0,-999.0,72,-99.99,,,0.00,weatherlink.com 1.10,2013-01-17 04:53:00,
2013-01-16 22:09:00,18.4,10.0,30.54,SW,217,13.0,-999.0,69,-99.99,,,0.00,weatherlink.com 1.10,2013-01-17 05:09:00,
2013-01-16 22:24:00,18.6,10.0,30.54,SW,217,17.0,-999.0,68,-99.99,,,0.00,weatherlink.com 1.10,2013-01-17 05:24:00,
2013-01-16 22:39:00,17.7,9.0,30.54,SW,214,9.0,-999.0,69,-99.99,,,0.00,weatherlink.com 1.10,2013-01-17 05:39:00,
2013-01-16 22:54:00,18.2,9.0,30.54,SSW,213,13.0,-999.0,67,-99.99,,,0.00,weatherlink.com 1.10,2013-01-17 05:54:00,
2013-01-16 23:09:00,18.3,9.0,30.53,SW,227,19.0,-999.0,67,-99.99,,,0.00,weatherlink.com 1.10,2013-01-17 06:09:00,
2013-01-16 23:24:00,18.4,8.0,30.53,SW,215,10.0,-999.0,65,-99.99,,,0.00,weatherlink.com 1.10,2013-01-17 06:24:00,
2013-01-16 23:39:00,18.3,8.0,30.53,SW,219,23.0,-999.0,65,-99.99,,,0.00,weatherlink.com 1.10,2013-01-17 06:39:00,
2013-01-16 23:54:00,17.9,8.0,30.54,SSW,206,12.0,-999.0,66,-99.99,,,0.00,weatherlink.com 1.10,2013-01-17 06:54:00,